Theta_e
307 307 306 307 304 304 303 301 300 297 300 301 290 290 290 293 293 293 294 296 300 304 306 307 306 304 302 301 299 300 300 299 299 297 298 299 299 298
307 306 306 306 305 303 302 302 301 300 297 304 299 291 289 289 290 291 291 293 296 300 303 304 303 301 300 298 298 299 298 299 298 297 299 298 298 296
306 305 304 305 304 304 302 301 300 299 296 300 300 292 288 287 288 289 290 290 291 295 299 302 301 299 298 298 298 297 297 298 296 297 296 297 295 294
305 303 303 303 302 303 303 300 299 299 297 295 298 288 287 287 288 286 287 288 288 291 296 299 297 296 297 297 296 296 296 295 294 295 294 293 292 293
303 302 302 302 300 300 300 300 297 297 297 295 295 284 285 284 284 284 285 285 286 288 292 295 295 295 296 295 295 294 294 292 293 292 290 290 291 291
300 300 300 299 299 299 296 296 296 294 293 293 293 291 283 282 284 282 281 283 283 285 288 290 292 293 294 294 293 292 291 292 292 290 289 289 288 285
295 296 297 296 293 297 295 295 293 292 292 290 290 284 282 280 280 281 281 281 282 284 284 285 287 288 290 293 291 291 291 290 290 289 288 287 283 282
291 292 291 288 290 292 294 295 295 290 289 290 289 288 286 283 282 280 280 278 277 283 283 283 285 285 286 287 289 290 290 289 289 289 286 283 281 280
289 288 288 287 287 289 290 292 292 293 295 291 288 288 286 283 282 280 281 280 279 280 281 279 283 282 284 285 289 289 289 289 289 286 282 280 279 279
288 288 287 287 287 287 287 286 286 287 288 290 287 287 286 285 284 283 282 281 280 281 283 278 280 280 282 283 288 289 289 289 285 282 280 278 277 278
287 287 286 286 287 288 286 285 285 285 287 290 290 289 289 288 285 283 280 279 277 278 282 279 279 278 280 280 281 288 288 284 281 279 277 276 276 277
286 285 284 286 287 288 285 285 284 283 284 284 285 286 287 286 286 284 283 281 278 277 280 278 276 276 275 275 276 276 282 279 277 275 275 274 275 274
285 284 284 285 286 287 288 285 284 284 285 284 284 284 284 284 284 284 285 282 280 278 281 278 276 276 275 271 272 273 273 274 271 271 271 272 273 274
283 283 283 284 286 287 287 286 287 285 284 283 282 282 282 282 282 283 282 282 282 282 282 279 275 276 273 271 271 271 271 271 270 269 269 270 271 272
283 284 285 285 286 286 286 286 284 283 282 281 281 280 281 281 279 277 276 275 274 275 277 277 276 274 275 273 270 269 268 269 269 269 268 268 268 268
282 281 284 285 286 285 284 284 283 283 282 281 280 280 280 279 277 277 275 275 273 271 272 274 274 274 271 271 271 268 268 268 267 267 267 267 267 268
278 279 282 283 283 283 283 282 283 283 281 281 280 279 278 277 276 276 274 274 273 270 269 269 269 269 270 270 268 268 267 266 267 266 265 265 266 267
277 278 279 280 280 280 280 279 278 278 279 280 279 278 277 276 274 273 273 273 271 270 268 268 267 267 267 267 268 266 265 265 265 265 265 263 264 266
275 275 275 275 276 276 275 275 274 274 276 275 275 275 275 274 273 272 271 270 269 269 267 267 267 267 265 265 265 268 265 264 264 264 264 264 263 264
272 271 271 271 271 271 272 272 271 271 271 271 271 271 271 271 270 270 270 268 268 266 265 265 265 265 265 265 263 264 268 264 264 263 263 264 265 268
268 267 267 267 267 268 268 267 267 267 267 267 267 267 267 268 266 267 266 265 264 264 264 264 264 264 262 261 261 261 263 266 266 264 264 262 261 262
265 264 264 264 264 264 265 265 265 264 264 263 262 263 263 265 263 263 263 263 262 262 262 262 261 261 261 261 259 258 260 262 263 265 266 266 263 260
262 261 261 260 261 261 262 262 261 260 259 259 259 259 259 259 258 259 258 257 257 257 258 259 260 260 259 259 258 258 257 258 259 260 261 265 266 267
Wind_Speed
12 12 11 9 9 9 9 10 10 12 15 8 6 11 9 9 15 12 14 22 31 31 29 28 29 26 24 22 18 25 21 19 18 10 13 13 13 14
9 12 12 10 10 9 10 10 10 12 17 8 7 6 8 8 11 13 15 19 25 30 31 26 28 26 25 22 23 24 22 20 14 12 13 14 14 11
10 11 14 13 10 9 9 10 11 11 15 12 6 4 7 9 8 11 11 12 12 26 30 28 25 26 25 23 25 23 21 19 14 14 12 14 10 10
12 11 13 8 12 11 9 12 12 11 11 19 11 4 8 8 8 10 9 9 10 18 29 27 25 25 25 23 24 21 20 16 13 12 10 10 9 14
12 12 12 12 11 10 11 11 9 9 10 11 12 2 4 2 4 5 7 8 7 14 25 27 26 26 24 22 22 19 15 12 14 11 11 10 11 14
12 11 11 11 14 12 11 12 10 8 9 10 10 7 3 3 4 4 6 6 6 6 13 12 17 20 21 22 20 18 15 13 12 12 10 11 8 3
11 11 12 12 13 13 8 9 9 9 9 9 10 4 4 4 6 4 6 4 3 3 6 5 6 7 9 16 11 16 15 12 12 9 10 8 6 3
10 9 8 8 10 14 16 17 14 9 11 9 10 11 10 5 4 5 5 4 3 5 6 5 8 6 5 3 11 16 15 13 10 11 10 9 5 3
9 8 7 6 8 9 13 17 16 17 20 11 13 10 6 8 7 7 8 6 4 5 5 4 5 4 4 5 15 12 13 15 12 13 11 6 3 3
9 9 9 8 6 8 8 9 9 9 10 9 7 6 6 7 10 8 7 5 6 7 5 4 4 4 5 5 16 17 17 12 14 11 8 4 3 4
8 8 7 8 10 13 8 8 8 6 6 12 9 10 12 15 11 8 8 9 3 3 4 3 3 3 3 4 2 11 12 16 12 8 5 3 3 5
6 5 9 9 14 13 7 7 8 4 3 2 3 6 8 11 19 9 9 8 6 4 4 3 3 4 3 2 1 2 6 13 10 5 4 2 4 3
6 5 4 10 11 12 12 4 5 4 6 3 3 4 6 6 5 4 4 6 4 3 5 4 3 3 4 3 2 2 4 5 4 2 0 2 5 6
4 4 5 11 12 11 7 4 6 5 3 4 4 3 4 5 5 5 6 7 6 5 7 6 4 4 4 3 3 2 2 3 3 3 2 3 6 8
4 7 10 10 9 4 4 3 5 3 3 3 4 2 3 4 7 6 9 11 11 10 6 3 5 5 3 4 4 3 4 3 3 3 2 3 3 4
5 4 4 5 4 5 4 5 4 4 3 4 4 3 3 2 3 3 3 4 4 5 10 9 7 5 4 4 3 3 3 2 2 2 2 4 5 5
3 3 2 3 4 4 5 4 4 4 5 3 3 3 3 3 3 3 4 3 3 3 3 5 8 8 6 4 2 2 3 2 2 2 3 4 6 6
3 3 5 5 5 5 5 6 6 7 5 4 3 2 3 3 4 3 3 3 3 3 3 2 2 2 2 2 1 2 2 2 2 3 4 4 6 5
4 5 5 6 6 6 6 6 6 5 5 5 5 4 4 5 3 3 4 3 3 4 3 3 2 1 2 2 1 1 2 2 2 3 4 5 7 7
5 5 5 6 6 6 6 5 5 5 6 5 6 5 4 3 3 4 3 3 3 3 3 2 1 3 3 2 1 1 0 3 3 4 5 6 8 16
5 5 5 5 5 5 5 5 6 5 5 5 4 5 4 3 4 4 4 4 4 2 2 2 1 4 4 3 1 1 1 4 3 4 5 7 7 4
4 5 4 5 4 4 4 4 5 5 5 5 5 4 4 4 4 3 2 2 1 2 2 3 3 2 1 2 1 2 3 3 6 12 11 12 6 5
4 4 4 4 4 4 4 4 5 4 4 3 3 3 2 3 2 3 3 3 3 2 1 2 2 1 1 1 1 2 4 5 4 6 4 6 9 14
Wind_Direction
227 228 228 230 219 218 220 215 231 269 266 233 224 214 218 222 228 222 226 233 229 229 228 213 216 203 206 200 211 232 226 221 219 220 245 256 269 265
226 228 229 227 227 220 220 224 224 244 275 261 228 199 207 216 220 217 227 230 234 231 227 218 208 208 204 202 218 224 224 223 219 230 248 258 262 271
231 229 233 226 227 226 221 221 226 226 252 267 265 183 194 209 213 218 220 221 228 232 233 221 206 201 205 200 215 221 220 221 219 234 247 264 271 286
255 242 242 238 239 236 230 230 227 226 239 264 261 203 212 215 218 210 214 219 225 227 228 221 209 204 208 198 207 214 222 215 222 230 248 252 269 275
256 253 254 251 244 239 235 238 228 230 234 249 265 150 200 176 205 219 220 223 221 220 224 218 214 207 205 197 205 202 208 205 228 213 232 256 263 265
259 253 256 244 246 241 232 233 236 232 234 244 253 247 192 182 207 201 214 208 207 189 213 206 202 207 207 201 194 201 203 205 205 208 236 252 249 213
262 260 256 253 240 239 237 239 236 236 242 241 244 208 192 183 202 191 212 183 179 180 190 189 194 196 197 199 193 205 185 184 206 219 240 215 193 216
265 259 252 254 261 257 255 255 250 234 239 237 244 239 232 204 166 182 167 161 206 191 173 188 170 155 163 159 172 174 171 200 216 234 177 186 200 237
264 263 261 244 248 259 262 263 263 257 245 236 238 234 222 177 175 181 187 183 170 156 151 165 159 164 147 176 191 186 210 220 222 166 174 190 201 261
268 266 266 269 244 255 263 262 261 256 257 246 221 209 199 177 188 182 165 126 102 147 154 153 155 145 156 182 211 218 221 209 155 163 165 178 208 259
263 262 263 271 271 277 271 264 268 260 263 247 231 210 188 175 155 142 153 149 128 143 196 111 137 116 142 155 172 234 194 145 142 148 162 177 236 273
280 263 267 276 282 278 264 269 261 231 193 173 148 169 169 167 163 169 158 161 131 125 193 120 119 139 139 65 80 16 132 130 128 158 166 217 260 285
283 283 287 296 291 290 281 250 248 176 186 155 123 131 130 139 127 133 149 149 124 76 159 116 126 121 77 114 85 100 116 139 147 167 230 298 275 278
297 302 300 308 304 298 299 222 227 166 131 121 119 118 116 123 117 106 88 79 56 90 143 119 112 139 124 136 146 146 170 170 179 196 207 278 281 289
308 302 320 328 326 327 135 162 115 111 117 121 108 89 75 83 100 83 80 80 69 54 56 62 123 126 121 124 140 154 159 180 190 189 229 234 273 286
336 323 329 348 335 76 59 75 83 88 83 87 83 82 87 80 89 84 92 94 81 66 45 49 78 108 116 98 121 142 172 185 146 164 236 273 271 263
335 359 18 51 69 57 68 73 86 83 91 100 110 102 97 105 71 69 91 92 87 121 100 56 56 60 60 119 135 172 175 200 214 237 247 262 261 266
31 21 38 44 51 54 60 56 42 51 50 70 71 60 75 85 87 61 64 74 96 119 120 111 113 77 56 49 278 163 174 213 204 223 231 265 276 278
53 39 42 39 44 49 53 51 50 32 38 51 57 57 71 80 81 84 86 85 84 95 90 110 133 142 152 223 123 244 196 184 193 238 255 260 281 288
40 45 49 45 48 51 49 56 56 50 54 57 63 59 60 80 86 94 83 93 116 98 102 93 177 196 206 211 164 110 297 197 234 278 287 284 280 290
43 49 42 46 52 57 63 66 66 61 62 69 62 62 55 76 78 78 83 77 95 102 150 170 78 66 89 92 116 248 265 276 246 273 295 299 303 291
64 66 53 54 57 61 68 74 78 69 65 63 62 62 54 67 92 105 94 111 84 107 91 85 96 111 142 209 242 278 289 303 299 295 278 263 265 286
71 73 65 58 51 50 57 70 75 76 69 79 77 65 56 86 63 65 92 85 117 112 114 148 149 70 58 11 260 291 299 304 315 316 298 292 290 290